Home   Weather   Abeokuta   Past weeks

Flag for Nigeria Past Weather in Abeokuta, Nigeria — Yesterday and Last 2 Weeks

Now
77 °F

Thunderstorms. Passing clouds.


Feels Like: 78 °F
Forecast: 73 / 85 °F
Wind: 2 mph from North

Location: Lagos / Ikeja

Current Time: Sep 24, 2016 at 11:40:11 PM

Latest Report: Sep 24, 2016 at 11:00 PM


Visibility: 5 mi

Pressure: 29.95 "Hg

Humidity: 94%

Dew Point: 75 °F

Location of AbeokutaLocation

Past Weather in Abeokuta — Graph

°F

Abeokuta Temperature Yesterday

Maximum temperature yesterday: 88 °F (at 2:00 PM)
Minimum temperature yesterday: 75 °F (at 7:00 AM)
Average temperature yesterday: 81 °F

High & Low Weather Summary for the Past Weeks

 TemperatureHumidityPressure
High88 °F (Sep 18, 3:00 PM)100% (Sep 10, 8:00 AM)30.07 "Hg (Sep 10, 8:00 AM)
Low73 °F (Sep 14, 2:00 PM)66% (Sep 17, 4:00 PM)29.86 "Hg (Sep 24, 4:00 PM)
Average79 °F88%29.97 "Hg
* Reported Sep 9 10:00 PM — Sep 24 10:00 PM, Abeokuta, Weather by CustomWeather, © 2016

Note: Actual official high and low records may vary slightly from our data, if they occured in-between our weather recording intervals... More about our weather records

Advertising

Abeokuta Weather History for the Previous 24 Hours

Scroll right to see more
 ConditionsComfort  
Time TempWeatherWind HumidityBarometerVisibility
10:00 PM
Sat, Sep 24
77 °FThunderstorms. Passing clouds.2 mph94%29.95 "Hg5 mi
9:00 PM79 °FThunderstorms. Passing clouds.2 mph89%29.95 "Hg5 mi
8:00 PM79 °FThunderstorms. Passing clouds.2 mph89%29.92 "Hg5 mi
7:00 PM81 °FThunderstorms. Passing clouds.3 mph84%29.89 "HgN/A
6:00 PM81 °FThunderstorms. Scattered clouds.6 mph84%29.89 "HgN/A
5:00 PM82 °FThundershowers. Scattered clouds.9 mph79%29.86 "HgN/A
4:00 PM82 °FScattered clouds.7 mph84%29.86 "HgN/A
3:00 PM86 °FScattered clouds.6 mph75%29.89 "HgN/A
2:00 PM88 °FScattered clouds.6 mph70%29.92 "HgN/A
1:00 PM86 °FScattered clouds.2 mph70%29.95 "HgN/A
12:00 PM84 °FPartly sunny.5 mph74%29.98 "HgN/A
11:00 AM81 °FScattered clouds.8 mph79%30.01 "HgN/A
10:00 AM82 °FScattered clouds.9 mph74%30.01 "HgN/A
9:00 AM79 °FPassing clouds.7 mph84%29.98 "HgN/A
8:00 AM77 °FThunderstorms. Scattered clouds.2 mph89%29.98 "HgN/A
7:00 AM75 °FPartly sunny.3 mph94%29.98 "HgN/A
6:00 AM75 °FThunderstorms. Passing clouds.2 mph94%29.95 "HgN/A
5:00 AM75 °FThunderstorms. Passing clouds.3 mph94%29.92 "HgN/A
4:00 AM77 °FPassing clouds.2 mph94%29.89 "HgN/A
3:00 AM77 °FPassing clouds.2 mph94%29.92 "HgN/A
2:00 AM77 °FPassing clouds.2 mph94%29.92 "HgN/A
1:00 AM79 °FPassing clouds.2 mph89%29.95 "HgN/A
12:00 AM79 °FPassing clouds.No wind89%29.98 "HgN/A
11:00 PM
Fri, Sep 23
79 °FPassing clouds.2 mph89%29.98 "HgN/A
Weather by CustomWeather, © 2016

See weather overviewHow to use our weather pages